Retour au catalogue

CZ-4C DEB

ActifPO
NORAD 38294·DEBRIS·🇨🇳 China

Lancé Nov 4, 2010 depuis Taiyuan Satellite Launch Center

Loading…

Prochains Passages (prochaines 24 heures)

TLE

FraisSource: Space-Track

Époque: Sep 14, 2026, 07:45 UTC

1 38294U 10059D   26257.32306078  .00000255  00000-0  24694-3 0  9992
2 38294  98.6356  99.5628 0259251 261.1216  96.0505 13.73912298781306

Suivez CZ-4C DEB en temps réel avec AllMySat

Download on the App Store